Weather History for KCKN - April, 2014

Change the Weather History Date:

Wednesday, April 23, 2014

  Actual Average Record
Temperature  
Mean Temperature 44 °F -  
Max Temperature 51 °F 56 °F 73 °F (1998)
Min Temperature 37 °F 32 °F 17 °F (2015)
Degree Days  
Heating Degree Days 21    
Moisture  
Dew Point 34 °F    
Average Humidity 75    
Maximum Humidity 100    
Minimum Humidity 38    
Precipitation  
Precipitation 0.43 in - - ()
Sea Level Pressure  
Sea Level Pressure 29.92 in    
Wind  
Wind Speed 14 mph (SE)    
Max Wind Speed 25 mph    
Max Gust Speed 33 mph    
Visibility 8 miles    
Events Rain    
Averages and records for this station are not official NWS values.
T = Trace of Precipitation, MM = Missing Value Source: NWS Daily Summary

Daily Weather History Graph

Daily Weather History Graph

Search for Another Location

Airport or City:

Trip Planner

Search our weather history database for the weather conditions in past years. The results will help you decide how hot, cold, wet, or windy it might be!

Date:

Astronomy

Apr. 23, 2014 Rise Set
Actual Time 6:22 AM CDT 8:28 PM CDT
Civil Twilight 5:48 AM CDT 9:01 PM CDT
Nautical Twilight 5:07 AM CDT 9:43 PM CDT
Astronomical Twilight 4:21 AM CDT 10:30 PM CDT
Moon 3:21 AM CDT (4/23) 2:12 PM CDT (4/23)
Length of Visible Light 15h 12m
Length of Day
14h 05m
Waning Crescent, 34% of the Moon is Illuminated
Apr 23
Waning Crescent
Apr 29
New
May 6
First Quarter
May 14
Full
May 21
Last Quarter

Hourly Weather History & Observations

Time (CDT) Temp. Windchill Dew Point Humidity Pressure Visibility Wind Dir Wind Speed Gust Speed Precip Events Conditions
12:14 AM 46.4 °F 41.1 °F 26.6 °F 46% 30.01 in 10.0 mi SE 11.5 mph - N/A   Clear
12:35 AM 46.4 °F 41.5 °F 26.6 °F 46% 30.00 in 10.0 mi ESE 10.4 mph - N/A   Clear
12:54 AM 44.6 °F 39.2 °F 26.6 °F 49% 30.00 in 10.0 mi ESE 10.4 mph - N/A   Clear
1:14 AM 44.6 °F 38.4 °F 26.6 °F 49% 30.00 in 10.0 mi ESE 12.7 mph - N/A   Clear
1:35 AM 44.6 °F 39.2 °F 26.6 °F 49% 29.99 in 10.0 mi ESE 10.4 mph - N/A   Clear
1:54 AM 42.8 °F 37.0 °F 26.6 °F 53% 29.99 in 10.0 mi ESE 10.4 mph - N/A   Clear
2:14 AM 42.8 °F 36.6 °F 26.6 °F 53% 29.99 in 10.0 mi ESE 11.5 mph - N/A   Clear
2:35 AM 39.2 °F 33.6 °F 28.4 °F 65% 29.98 in 10.0 mi SE 8.1 mph - N/A   Clear
2:54 AM 39.2 °F 33.0 °F 28.4 °F 65% 29.98 in 10.0 mi SE 9.2 mph - N/A   Clear
3:15 AM 39.2 °F 32.5 °F 28.4 °F 65% 29.98 in 10.0 mi SE 10.4 mph - N/A   Clear
3:34 AM 39.2 °F 32.5 °F 28.4 °F 65% 29.97 in 10.0 mi SE 10.4 mph - N/A   Clear
3:54 AM 39.2 °F 32.5 °F 28.4 °F 65% 29.97 in 10.0 mi SE 10.4 mph - N/A   Clear
4:15 AM 39.2 °F 33.0 °F 28.4 °F 65% 29.97 in 10.0 mi SE 9.2 mph - N/A   Clear
4:34 AM 39.2 °F 33.6 °F 28.4 °F 65% 29.98 in 10.0 mi SE 8.1 mph - N/A   Clear
4:54 AM 39.2 °F 33.6 °F 28.4 °F 65% 29.98 in 10.0 mi SE 8.1 mph - N/A   Clear
5:15 AM 41.0 °F 35.2 °F 28.4 °F 61% 29.98 in 10.0 mi SE 9.2 mph - N/A   Clear
5:34 AM 41.0 °F 34.7 °F 28.4 °F 61% 29.97 in 10.0 mi SE 10.4 mph - N/A   Clear
5:55 AM 42.8 °F 36.2 °F 28.4 °F 57% 29.96 in 10.0 mi SE 12.7 mph - N/A   Clear
6:14 AM 42.8 °F 36.6 °F 28.4 °F 57% 29.96 in 10.0 mi SE 11.5 mph - N/A   Clear
6:35 AM 44.6 °F 38.8 °F 28.4 °F 53% 29.95 in 10.0 mi SE 11.5 mph - N/A   Clear
6:55 AM 44.6 °F 38.8 °F 28.4 °F 53% 29.95 in 10.0 mi SE 11.5 mph - N/A   Clear
7:14 AM 44.6 °F 38.4 °F 28.4 °F 53% 29.95 in 10.0 mi SE 12.7 mph - N/A   Clear
7:35 AM 44.6 °F 38.8 °F 28.4 °F 53% 29.95 in 10.0 mi SE 11.5 mph - N/A   Clear
7:55 AM 46.4 °F 41.1 °F 28.4 °F 50% 29.95 in 10.0 mi SE 11.5 mph - N/A   Clear
8:14 AM 46.4 °F 40.1 °F 28.4 °F 50% 29.95 in 10.0 mi SE 15.0 mph - N/A   Clear
8:35 AM 46.4 °F 39.8 °F 28.4 °F 50% 29.94 in 10.0 mi SE 16.1 mph 20.7 mph N/A   Clear
8:54 AM 48.2 °F - 28.4 °F 46% 29.93 in 10.0 mi SSE 16.1 mph - N/A   Scattered Clouds
9:14 AM 50.0 °F - 28.4 °F 43% 29.93 in 10.0 mi SSE 20.7 mph 25.3 mph N/A   Scattered Clouds
9:35 AM 51.8 °F - 26.6 °F 38% 29.92 in 10.0 mi SSE 23.0 mph 27.6 mph N/A   Scattered Clouds
9:54 AM 51.8 °F - 26.6 °F 38% 29.92 in 10.0 mi SSE 21.9 mph - N/A   Scattered Clouds
10:15 AM 51.8 °F - 26.6 °F 38% 29.91 in 10.0 mi SSE 23.0 mph 29.9 mph N/A   Scattered Clouds
10:35 AM 50.0 °F - 28.4 °F 43% 29.90 in 10.0 mi SSE 21.9 mph 26.5 mph N/A   Clear
10:54 AM 50.0 °F - 28.4 °F 43% 29.90 in 10.0 mi SSE 21.9 mph 29.9 mph N/A   Clear
11:15 AM 50.0 °F - 28.4 °F 43% 29.90 in 10.0 mi SSE 20.7 mph 27.6 mph N/A   Light Drizzle
11:34 AM 48.2 °F - 33.8 °F 58% 29.90 in 10.0 mi SSE 16.1 mph - N/A Rain Light Rain
12:15 PM 42.8 °F 36.6 °F 39.2 °F 87% 29.91 in 10.0 mi SSE 11.5 mph - 0.02 in Rain Light Rain
12:34 PM 42.8 °F 37.5 °F 39.2 °F 87% 29.91 in 7.0 mi SE 9.2 mph - 0.02 in Rain Light Rain
12:55 PM 44.6 °F 37.8 °F 39.2 °F 81% 29.90 in 10.0 mi SSE 15.0 mph 18.4 mph 0.01 in Rain Light Rain
1:15 PM 42.8 °F 36.6 °F 41.0 °F 93% 29.90 in 3.0 mi SSE 11.5 mph - 0.03 in Rain Rain
1:34 PM 42.8 °F 35.8 °F 42.8 °F 100% 29.90 in 4.0 mi SE 13.8 mph 20.7 mph 0.04 in Rain Light Rain
1:55 PM 42.8 °F 36.2 °F 42.8 °F 100% 29.89 in 4.0 mi SE 12.7 mph - N/A Rain Rain
2:14 PM 42.8 °F 35.8 °F 42.8 °F 100% 29.90 in 5.0 mi SE 13.8 mph - 0.01 in Rain Rain
2:35 PM 42.8 °F 36.2 °F 42.8 °F 100% 29.89 in 4.0 mi SE 12.7 mph - 0.03 in Rain Light Rain
3:14 PM 44.6 °F 38.4 °F 42.8 °F 93% 29.88 in 4.0 mi SE 12.7 mph - N/A Rain Rain
3:35 PM 44.6 °F 37.8 °F 42.8 °F 93% 29.88 in 5.0 mi SSE 15.0 mph - 0.02 in Rain Light Rain
3:54 PM 42.8 °F 35.1 °F 42.8 °F 100% 29.89 in 3.0 mi SSE 16.1 mph - 0.01 in Rain Light Rain
4:14 PM 42.8 °F 34.3 °F 42.8 °F 100% 29.89 in 3.0 mi SSE 19.6 mph 27.6 mph 0.02 in Rain Light Rain
4:34 PM 42.8 °F 34.3 °F 41.0 °F 93% 29.89 in 3.0 mi SSE 19.6 mph 27.6 mph 0.02 in Rain Light Rain
4:54 PM 41.0 °F 30.7 °F 41.0 °F 100% 29.89 in 2.0 mi SSE 25.3 mph 29.9 mph 0.01 in Rain Rain
5:15 PM 41.0 °F 31.9 °F 41.0 °F 100% 29.89 in 4.0 mi SSE 19.6 mph 26.5 mph 0.03 in Rain Light Rain
5:34 PM 41.0 °F 31.4 °F 41.0 °F 100% 29.88 in 4.0 mi SSE 21.9 mph - 0.04 in Rain Light Rain
5:55 PM 41.0 °F 32.8 °F 41.0 °F 100% 29.89 in 5.0 mi SSE 16.1 mph - 0.01 in Rain Light Rain
6:14 PM 41.0 °F 31.9 °F 39.2 °F 93% 29.88 in 4.0 mi SE 19.6 mph 26.5 mph 0.03 in Rain Rain
6:34 PM 39.2 °F 29.8 °F 39.2 °F 100% 29.88 in 7.0 mi SE 18.4 mph 21.9 mph 0.05 in   Overcast
6:55 PM 39.2 °F 31.2 °F 39.2 °F 100% 29.89 in 5.0 mi SE 13.8 mph - 0.01 in   Overcast
7:14 PM 39.2 °F 30.8 °F 39.2 °F 100% 29.89 in 4.0 mi SE 15.0 mph - 0.04 in   Overcast
7:35 PM 39.2 °F 29.3 °F 39.2 °F 100% 29.89 in 5.0 mi SE 20.7 mph 29.9 mph 0.05 in   Overcast
7:54 PM 39.2 °F 29.3 °F 39.2 °F 100% 29.87 in 5.0 mi SE 20.7 mph 25.3 mph 0.01 in   Overcast
8:14 PM 39.2 °F 29.6 °F 39.2 °F 100% 29.87 in 5.0 mi SE 19.6 mph 25.3 mph 0.03 in   Overcast
8:35 PM 39.2 °F 30.5 °F 39.2 °F 100% 29.88 in 4.0 mi SE 16.1 mph - 0.06 in   Overcast
8:54 PM 39.2 °F 29.3 °F 37.4 °F 93% 29.88 in 5.0 mi SE 20.7 mph 28.8 mph 0.03 in   Overcast
9:15 PM 39.2 °F 29.0 °F 37.4 °F 93% 29.89 in 5.0 mi SE 21.9 mph 27.6 mph 0.08 in   Overcast
9:35 PM 39.2 °F 29.6 °F 37.4 °F 93% 29.89 in 7.0 mi SE 19.6 mph 33.4 mph 0.09 in   Overcast
9:54 PM 37.4 °F 27.5 °F 37.4 °F 100% 29.87 in 7.0 mi ESE 18.4 mph 27.6 mph N/A   Overcast
10:15 PM 37.4 °F 27.5 °F 37.4 °F 100% 29.87 in 10.0 mi SE 18.4 mph 25.3 mph 0.01 in   Overcast
10:35 PM 37.4 °F 27.2 °F 37.4 °F 100% 29.86 in 10.0 mi ESE 19.6 mph - N/A   Unknown
10:54 PM 37.4 °F 27.2 °F 37.4 °F 100% 29.86 in 10.0 mi SE 19.6 mph - N/A   Overcast
11:15 PM 37.4 °F 27.8 °F 35.6 °F 93% 29.85 in 10.0 mi ESE 17.3 mph - N/A   Overcast
11:34 PM 37.4 °F 28.9 °F 37.4 °F 100% 29.85 in 10.0 mi SE 13.8 mph - N/A   Overcast
11:54 PM 37.4 °F 28.9 °F 37.4 °F 100% 29.85 in 10.0 mi SE 13.8 mph 18.4 mph N/A   Overcast